Regional Weather Roundup
Issued by NWS

Home | Current Version | Previous Version | Text Only | Print | Product List | Glossary Off
Versions: 1 2 3 4 5 6 7 8 9 10 11 12 13 14 15 16 17 18 19 20 21 22 23 24 25 26 27 28 29 30 31 32 33 34 35 36 37 38 39 40 41 42 43 44 45 46 47 48 49 50

000
ASUS45 KABQ 212310
RWRNM
WEATHER ROUNDUP FOR NEW MEXICO
NATIONAL WEATHER SERVICE ALBUQUERQUE NM
500 PM MDT THU AUG 21 2014

NOTE: "FAIR" MEANS FEW OR NO CLOUDS BELOW 12,000 FEET AGL WITH NO
       SIGNIFICANT WEATHER OR OBSTRUCTIONS TO VISION.

      THIS PRODUCT IS RELEASED AS TWO VERSIONS.  ONE VERSION NEAR
      THE TOP OF THE HOUR CONTAINING PRELIMINARY DATA FROM ALBUQUERQUE
      AND OTHER STATIONS.  A FINAL VERSION WITH ADDITIONAL DATA IS
      ISSUED ABOUT 10 MINUTES AFTER THE HOUR.

NMZ501-503-504-510>518-220000-
NORTHWEST PLATEAU/NORTHCENTRAL MOUNTAINS

CITY           SKY/WX    TMP DP  RH WIND       PRES   REMARKS
FARMINGTON     SUNNY     81  35  19 W14       30.11F
LOS ALAMOS     PTSUNNY   78  36  22 SW8       30.23F
SANTA FE       MOSUNNY   85  33  15 W15       30.15F
TAOS           PTSUNNY   81  30  16 S10       30.21S
ANGEL FIRE     FAIR      74  31  20 W8G16     30.31F

$$
NMZ402-403-502-505>509-220000-
WESTCENTRAL MOUNTAINS/SOUTHWEST MOUNTAINS

CITY           SKY/WX    TMP DP  RH WIND       PRES   REMARKS
GALLUP         CLOUDY    76  41  28 E7        30.18F
SILVER CITY    MOSUNNY   84  46  26 W8        30.12F

$$
NMZ407-409-411-412-220000-
SOUTHERN DESERTS

CITY           SKY/WX    TMP DP  RH WIND       PRES   REMARKS
LORDSBURG      FAIR      86  46  25 NW9       30.03F
DEMING         MOSUNNY   89  41  18 W12       30.03F
LAS CRUCES     MOSUNNY   90  42  18 CALM      30.03F
HOLLOMAN AFB   MOSUNNY   93  45  19 VRB5      29.98F
ALAMOGORDO     MOSUNNY   91  45  19 SW7       30.00F
T OR C         SUNNY     89  44  20 S12       30.03F

$$
NMZ519>523-220000-
CENTRAL VALLEYS/CENTRAL HIGHLANDS

CITY           SKY/WX    TMP DP  RH WIND       PRES   REMARKS
ALBUQUERQUE    PTSUNNY   88  29  12 S12       30.09F
DOUBLE EAGLE   PTSUNNY   84  39  20 W9        30.12F
MORIARTY ARPT  MOCLDY    82  36  19 NW3       30.15F
CLINES CORNERS MOSUNNY   80  41  24 S8G23     30.20F
BELEN          FAIR      87  37  17 S6        30.07F
SOCORRO        FAIR      92  38  15 SW9G16    30.04F

$$
NMZ524>526-539-540-220000-
SOUTHCENTRAL MOUNTAINS

CITY           SKY/WX    TMP DP  RH WIND       PRES   REMARKS
RUIDOSO        MOSUNNY   79  46  31 SE6       30.23S

$$
NMZ527>531-220000-
NORTHEAST HIGHLANDS/NORTHEAST PLAINS

CITY           SKY/WX    TMP DP  RH WIND       PRES   REMARKS
LAS VEGAS      MOSUNNY   82  37  20 S16G23    30.17F
RATON          MOSUNNY   84  37  18 SE13      30.12S
CLAYTON        MOSUNNY   90  44  20 S6        30.03S

$$
NMZ532>537-220000-
EASTCENTRAL PLAINS

CITY           SKY/WX    TMP DP  RH WIND       PRES   REMARKS
TUCUMCARI      SUNNY     99  37  11 S10       29.95S
CANNON AFB     SUNNY     94  49  21 W7        30.01S
CLOVIS AIRPORT   N/A     93  48  21 SW8       30.02S

$$
NMZ028-029-538-220000-
SOUTHEAST PLAINS

CITY           SKY/WX    TMP DP  RH WIND       PRES   REMARKS
ROSWELL        MOSUNNY   96  50  20 E9        29.94F
ARTESIA        MOSUNNY   95  48  20 S9        29.94F
CARLSBAD       MOSUNNY   99  45  15 S15G22    29.91F HX  95
HOBBS          PTSUNNY   84  57  39 CALM      30.00S


$$



USA.gov is the U.S. government's official web portal to all federal, state and local government web resources and services.